HJ-2A

Satellite information

Favourite Embed

Satellite Type and Status

PAYLOADIN ORBIT

Key statistics

Satellite HJ-2A at a glance.

Uptime

1906

Days in orbit

Revolutions

≈ 14.8

Per day

Orbit

SSO

Sun Synchronous Orbit

Inclination

97.9

Latest

Satellite identification and parameters

Extended collection of information and parameters for HJ-2A.

Object identification

Identified? True

Debris? False

Object name: HJ-2A

International designator: 2020-067A

Object number (NORAD): 46478

Object ID (CCSDS): 46478

Country: PEOPLES REPUBLIC OF CHINA (PRC)

Current information (Y/N): Y

RCS size: LARGE

Orbital parameters

Period: 97.526 minutes

Inclination: 97.9009 deg

SMA: 7018.431 km

Apoapsis: 643.254 km

Periapsis: 637.338 km

RAAN: 67.4886 deg

Eccentricy: 0.00042146

Argument of periapsis: 116.8472 deg

Mean anomaly: 243.317 deg

Mean motion: 14.76531421 rev/day

Mean motion (dot): 0.00001162 rev/day2

B* drag term: 0.00017386459 1/REarth

Two-line elements (TLE)

Creation date: Dec. 16, 2025, 2:19 a.m.

Reference frame: TEME

Reference center: EARTH

Epoch: Dec. 15, 2025, 10:09 p.m. UTC

TLE line 0: 0 HJ-2A

TLE line 1: 1 46478U 20067A 25349.92333936 .00001162 00000-0 17386-3 0 9993

TLE line 2: 2 46478 97.9009 67.4886 0004215 116.8472 243.3170 14.76531421281213

Live tracking on map

Real-time ground track for satellite HJ-2A.

In-orbit conjunctions

There are no conjunctions computed for HJ-2A, at the moment. Check back to stay up to date, as we update our databases every day.

Go to all conjunctions

Associated space launch

Huanjing (abbreviated as HJ) is a constellation of environmental monitoring satellites. The HJ-2A and HJ-2B are 16-meter optical satellites which will provide 16-meter multispectral, 48-meter hyperspectral and infrared image data.

HJ-2A was lifted into orbit during the mission ‘Long March 4B | Huanjing 2A, 2B’, on board a Long March 4B space rocket.

The launch took place on Sept. 27, 2020, 3:23 a.m. from Launch Complex 9.

For more information about the launch, click the button.

Launch to space Long March 4B | Huanjing 2A, 2B
Long March 4B | Huanjing 2A, 2B

Agency: N/A

Status: Launch Successful

Launch date: Sept. 27, 2020, 3:23 a.m. UTC

Rocket: Long March 4B

Launch pad: Launch Complex 9

Location: Taiyuan Satellite Launch Center, People's Republic of China

...

Latest news about this satellite

News about space launch
Suprise Chinese launch lofts Huanjing duo

News about space launch
Secretive Chinese launch sends two remote sensing satellites into orbit

News about space launch
China launches environmental monitoring satellites


Newsletter sign-up

Weekly statistics, charts and insights to help you stay on top of the space industry.